FLOCK 4H-2 (66705 NORAD) Tracking and Keplerian Element Data

This shows tracking and keplerian element data for the satellite.

Feedback or suggestion? Click here.




ElementValue
Catalog66705
NameFLOCK 4H-2
Epoch Orbit325
Epoch Day354.18140666
Epoch Year2025
RAAN65.8268
Inclination97.4388
Eccentricity0.0001045
Argument of Perigee165.2555
Mean Anonmoly194.8709
Mean Motion15.18098431
Decay Rate6.514E-05
L11 66705U 25276AR 25354.18140666 .00006514 00000+0 32269-3 0 9997
L22 66705 97.4388 65.8268 0001045 165.2555 194.8709 15.18098431 3257



Live tracking and technical data element details for FLOCK 4H-2 (NORAD 66705). FLOCK 4H-2 can be tracked NOW for your location showing map with azimuth and elevation plus other details from your city location.







IsCatalogInMostPopularTable: catalog: 66705, numindb: 24
Update: records affected: 1



GetName: 66705 FLOCK 4H-2

Hit Count: updated at: Tue, 21 Apr 2026 20:08:42 GMT